カタログに戻る

CZ-6A DEB

運用中PO
NORAD 60793·DEBRIS·🇨🇳 China

打ち上げ Aug 6, 2024 から Taiyuan Satellite Launch Center

Loading…

次のパス (今後24時間)

TLE

最新Source: Space-Track

元期: Sep 14, 2026, 10:47 UTC

1 60793U 24140FU  26257.44933200  .00000077  00000-0  32879-4 0  9990
2 60793  89.0245 268.0490 0064833 270.9949  88.3810 14.14284070107892

AllMySatでCZ-6A DEBをリアルタイム追跡

Download on the App Store